SWIFT

Last updated on July 6, 2021, 3:27 p.m. UTC

1 28485U 04047A   21186.78233783  .00000966  00000-0  35073-4 0  9994
2 28485  20.5554 220.6106 0010799 226.5297 133.4239 15.05035079911232
UTC
Height (km)
Latitude
Longitude
Inclination
Orbital Period
UTC large
Height (km)
Speed (km/s)
/
Latitude / Longitude
Inclination (degrees)
Orbital Period (minutes)
Azimuth
Elevation
Range (km)
Doppler Factor
iOS Compass Heading
iOS Angle